www.pogodaiklimat.ru

Погода и климат >> Архив погоды >> Индия >> Раджастхан >> Джайпур


ПОГОДА в Джайпуре

  • Прогноз погоды в Джайпуре
  • Монитор погоды в Джайпуре

АРХИВ ПОГОДЫ в Джайпуре

Время (UTC), дата Ветер
(напр.,м/с)
 
Видим.   Явления Облачность Т
(С)
Тd
(С)
f
(%)
Тe
(С)
Тes
(С)
Комфортность P
(гПа)
Po
(гПа)
Тmin
(С)
Tmax
(С)
R
(мм)
R24
(мм)
S
(см)
12 14.04 нст 1 4000 м мгла 3/3 1050 м
[Cu med, cong]
+39.4 +8.7 16 +38 +39 очень
жарко
1004.9 962.9 +39.8
15 14.04 В 2 2000 м мгла 4/3 1050 м
[Sc Ac trans]
+35.6 +7.9 18 +34 +34 очень
жарко
1005.6 963.1
18 14.04 С 2 2000 м мгла 5/3 1050 м
[Sc Ac trans]
+34.0 +9.7 23 +33 +33 жарко 1006.5 963.8
21 14.04 В 2 2000 м мгла 5/3 1050 м
[Sc Ac trans]
+30.8 +10.1 28 +31 +31 жарко 1006.1 962.9
00 15.04 СВ 3 2000 м мгла 5/3 1050 м
[Sc Ac trans]
+29.4 +10.9 32 +30 +30 жарко 1007.0 963.6
03 15.04 В 4 2000 м мгла 4/0
[Ci sp]
+32.2 +11.9 29 +32 +36 жарко 1008.2 965.1 +27.5 +39.8
06 15.04 ЮВ 3 2000 м мгла 5/0
[Ac trans]
+35.8 +13.2 26 +36 +47 очень
жарко
1008.3 965.7
09 15.04 ЮЗ 3 4000 м мгла 6/0
[Ac trans Ci fib]
+38.6 +7.1 15 +36 +46 очень
жарко
1005.0 962.9
12 15.04 ЮЗ 3 4000 м мгла 6/0
[Ac trans Ci fib]
+38.6 +8.3 16 +37 +38 очень
жарко
1002.7 960.7 +39.8
15 15.04 ЮЗ 4 1000 м пыльный позёмок 9/6 900 м
[Cb calv Ac und]
+33.0 +10.6 25 +32 +32 жарко 1005.7 962.9
18 15.04 З 4 1000 м пыльный позёмок 9/4 900 м
[Cb calv Ac trans]
+29.8 +9.6 28 +29 +29 жарко 1008.2 964.8
21 15.04 СЗ 3 1000 м пыльный позёмок 10/5 900 м
[Cb calv]
+27.4 +13.6 43 +29 +29 жарко 1009.1 965.3
00 16.04 ЮВ 4 1000 м гроза без осадков 9/5 900 м
[Cb calv Ac und]
+26.0 +15.1 51 +29 +29 душно 1008.3 964.4
03 16.04 ЮВ 4 2000 м мгла {гроза, дождь} 9/5 900 м
[Sc Ac trans]
+25.0 +15.4 55 +28 +29 жарко 1011.0 966.8 +23.0 +39.8 0.0
06 16.04 Ю 3 4000 м мгла 9/4 900 м
[Sc Ac trans]
+27.4 +14.5 45 +30 +35 жарко 1011.4 967.5
09 16.04 ЮВ 3 4000 м мгла 9/4 1050 м
[Sc Ac trans]
+31.4 +13.5 34 +33 +37 жарко 1007.9 964.7
12 16.04 ЮЗ 2 2000 м гроза, ливневой дождь 10/6 900 м
[Cb calv As op]
+20.0 +14.5 71 +23 +23 комфорт 1011.9 966.9 +32.4 6
15 16.04 В 5 2000 м мгла {гроза, дождь} 10/5 900 м
[Sc As op]
+21.2 +16.2 73 +25 +25 комфорт 1009.0 964.3 8
18 16.04 В 4 2000 м гроза без осадков 10/5 1050 м
[Sc As op]
+18.6 +17.3 92 +19 +19 1012.0 966.8 14
21 16.04 В 3 2000 м дымка 10/5 1050 м
[Sc As op]
+19.2 +18.6 96 +22 +22 комфорт 1008.7 963.7 14
00 17.04 штиль 0 2000 м дымка 9/5 900 м
[Sc As op]
+19.0 +18.0 94 +21 +21 комфорт 1009.6 964.6 14
03 17.04 ЮЗ 2 2000 м дымка 5/3 900 м
[Sc Ac trans]
+19.8 +16.8 83 +23 +27 комфорт 1012.3 967.3 +17.6 +32.4 14
06 17.04 ЮЗ 5 4000 м мгла 5/5 1050 м
[Sc]
+25.4 +17.4 61 +29 +35 душно 1011.3 967.1
09 17.04 Ю 5 4000 м мгла 8/4 900 м
[Cb calv Ac trans]
+27.2 +15.4 48 +30 +33 душно 1008.9 965.1
12 17.04 СЗ 3 2000 м мгла 9/4 900 м
[Cb calv Ac trans]
+25.0 +13.4 49 +27 +28 жарко 1008.6 964.5 +28.5
15 17.04 В 5 2000 м мгла 8/4 900 м
[Cb calv Ac trans]
+22.2 +15.9 67 +26 +26 душно 1010.6 966.0
18 17.04 В 4 2000 м мгла 6/4 900 м
[Sc Ac trans]
+20.8 +15.8 73 +24 +24 комфорт 1012.6 967.7
21 17.04 В 3 2000 м дымка 6/3 1050 м
[Sc Ac trans]
+20.0 +16.7 81 +23 +23 комфорт 1011.4 966.4
00 18.04 В 3 1000 м дымка 3/3 1050 м
[Sc]
+19.0 +16.3 84 +21 +21 комфорт 1012.0 966.9
03 18.04 В 3 1000 м мгла 5/3 1050 м
[Sc Ac trans]
+21.6 +16.7 74 +26 +29 душно 1012.9 968.1 +18.7 +28.5
06 18.04 ЮЗ 2 2000 м мгла 6/4 1050 м
[Sc Ac trans]
+26.0 +17.0 58 +30 +40 душно 1013.1 969.0
09 18.04 СЗ 1 2000 м мгла 8/4 900 м
[Sc Ac trans]
+28.8 +13.8 40 +31 +37 жарко 1010.6 967.0
12 18.04 СЗ 3 2000 м мгла 5/4 1050 м
[Sc Ac trans]
+29.8 +13.4 37 +31 +32 жарко 1009.2 965.8 +30.2
15 18.04 штиль 0 2000 м мгла 3/0
[Ac trans]
+26.8 +14.1 46 +29 +29 жарко 1010.3 966.4
18 18.04 штиль 0 2000 м мгла 3/0
[Ac trans]
+25.6 +14.2 49 +28 +28 жарко 1011.1 967.0
21 18.04 СЗ 2 2000 м мгла 3/0
[Ac trans]
+24.0 +13.4 51 +26 +26 жарко 1010.1 965.8
00 19.04 нст 1 2000 м мгла 3/0
[Ac trans]
+22.4 +13.0 55 +25 +25 комфорт 1010.1 965.6
03 19.04 СВ 1 2000 м мгла ясно +25.0 +13.4 49 +27 +35 жарко 1011.3 967.1 +21.5 +30.2
06 19.04 З 1 4000 м мгла 3/3 1050 м
[Sc]
+28.4 +12.3 37 +30 +46 жарко 1011.6 967.9
09 19.04 СЗ 3 4000 м мгла 5/5 1050 м
[Sc]
+31.0 +9.4 26 +30 +37 жарко 1008.4 965.2
12 19.04 СЗ 3 4000 м мгла 1/1 1050 м
[Sc]
+30.6 +10.8 29 +31 +32 жарко 1007.2 964.0 +31.8
15 19.04 штиль 0 2000 м мгла ясно +28.6 +11.7 35 +29 +29 жарко 1008.4 964.8
18 19.04 штиль 0 2000 м мгла ясно +27.2 +11.5 38 +28 +28 жарко 1008.5 964.7
21 19.04 штиль 0 2000 м мгла ясно +25.0 +12.6 46 +27 +27 жарко 1007.6 963.5
00 20.04 штиль 0 2000 м мгла ясно +24.2 +12.4 48 +26 +26 жарко 1007.6 963.4
03 20.04 ЮВ 2 2000 м мгла 4/0
[Ac trans Ci fib]
+28.6 +12.2 36 +30 +35 жарко 1008.4 964.8 +21.4 +31.8
06 20.04 З 3 4000 м мгла 4/1 1050 м
[Sc Ci fib]
+31.6 +11.4 29 +32 +47 жарко 1007.7 964.6
09 20.04 З 3 4000 м мгла 4/0
[Ci fib]
+33.2 +8.8 22 +32 +45 жарко 1005.4 962.6
12 20.04 СЗ 3 4000 м мгла 4/1 1050 м
[Sc Ci fib]
+34.2 +2.9 14 +31 +33 жарко 1003.9 961.3 +35.0
15 20.04 штиль 0 2000 м мгла ясно +31.2 +10.3 28 +31 +31 жарко 1004.9 961.8
18 20.04 нст 2 2000 м мгла ясно +28.4 +10.4 33 +29 +29 жарко 1005.8 962.3
21 20.04 В 1 2000 м мгла ясно +26.2 +13.7 46 +28 +28 жарко 1005.4 961.6
00 21.04 В 1 2000 м мгла ясно +23.2 +14.4 58 +27 +27 душно 1005.6 961.4
03 21.04 Ю 2 2000 м мгла ясно +29.0 +11.8 35 +30 +37 жарко 1006.9 963.4 +22.6 +35.0
06 21.04 ЮЗ 3 2000 м мгла ясно +35.0 +8.6 20 +33 +50 жарко 1006.6 964.0
09 21.04 СЗ 4 2000 м мгла 4/4
[Sc]
+37.4 +5.8 14 +35 +42 очень
жарко
1004.1 961.9

 

Местоположение метеостанции Джайпур (Раджастхан, Индия): широта 26.82 долгота 75.80 высота над уровнем моря 390 м.

В архиве по умолчанию представлена погода в Джайпуре за последнюю неделю. Архивные данные за месяц целиком и за предыдущие месяцы, начиная с января 2011 года, Вы можете получить, выбрав интересующий диапазон дат из раскрывающегося списка и нажав кнопку "Ввод!".


*Определитесь, кто Вы:
робот инопланетянин человек

Внимание! Время в таблицах - всемирное. Для получения местного времени необходимо прибавить поправку, которая равна 5.5 ч.

Смотрите также архив погоды в соседних городах и на ближайших метеорологических станциях:

Погода в Аджмере (Раджастхан, Индия) (124 км)
Погода в Шеопуре (Мадхья-Прадеш, Индия) (155 км)
Погода в Пилани (Раджастхан, Индия) (169 км)
Погода в Чуру (Раджастхан, Индия) (181 км)
Погода в Коте (Раджастхан, Индия) (186 км)
Погода в Бхилваре (Раджастхан, Индия) (201 км)
Погода в Агре (Уттар-Прадеш, Индия) (218 км)
Погода в Нью-Дели Айя Нагар (округ Дели, Индия) (226 км)
Погода в Нью-Дели аэропорт (округ Дели, Индия) (234 км)
Погода в Рохтаке (Харьяна, Индия) (236 км)

Пояснения к столбцам:

Ветер - указаны скорость ветра в м/с - средняя за 10 мин, порывы в срок и между сроками (в фигурных скобках) и направление, откуда дует ветер: С - северный, СВ - северо-восточный, В - восточный, ЮВ - юго-восточный, Ю - южный, ЮЗ - юго-западный, З - западный, СЗ - северо-западный.
Видимость - горизонтальная дальность видимости в метрах или километрах. При видимости от 1 до 10 км при отсутствии осадков обычно наблюдается дымка, при ухудшении видимости до 1 км и менее - туман. В сухую погоду видимость может ухудшаться дымом, пылью или мглою.
Явления - указаны атмосферные явления, наблюдавшиеся в срок или в последний час перед сроком; фигурными скобками обозначены явления, наблюдавшиеся между сроками (за 1-3 часа до срока); квадратными скобками обозначены град или гололедные отложения с указанием их диаметра в мм.
Облачность - указаны через наклонную черту общая и нижняя облачность в баллах и высота нижней границы облаков в метрах; квадратными скобками обозначены формы облаков: Ci - перистые, Cs - перисто-слоистые, Cc - перисто-кучевые, Ac - высококучевые, As - высокослоистые, Sc - слоисто-кучевые, Ns - слоисто-дождевые, Cu - кучевые, Cb - кучево-дождевые. Подробнее классификацию облаков см. в Атласе облаков (PDF).
T - Температура воздуха - температура, измеренная на высоте 2 м над землей.
Td - Температура точки росы - температура, при понижении до которой содержащийся в воздухе водяной пар достигнет насыщения.
f - Относительная влажность воздуха - влажноcть воздуха, измеренная на высоте 2 м над землей.
Te - Эффективная температура - температура, которую ощущает одетый по сезону человек в тени. Характеристика душности погоды. При расчете учитывается влияние влажности воздуха и скорости ветра на теплоощущения человека.
Tes - Эффективная температура на солнце - температура, которую ощущает человек, с поправкой на солнечный нагрев. Характеристика знойности погоды. Зависит от высоты солнца над горизонтом, облачности и скорости ветра. Ночью, в пасмурную погоду, а также при ветре 12 м/с и более поправка равна нулю.
P - Атмосферное давление - приведенное к уровню моря атмосферное давление.
Po - Атмосферное давление - измеренное на уровне метеостанции атмосферное давление.
Tmin - Минимальная температура - минимум температуры воздуха на высоте 2 м над землей.
Tmax - Максимальная температура - максимум температуры воздуха на высоте 2 м над землей.
R - Количество осадков - Количество выпавших осадков за период времени, мм. При наведении курсора мыши на число - период времени, за который выпало указанное количество осадков.
R24 - Количество осадков - Количество выпавших осадков за 24 часа, мм.
S - Снежный покров - Высота снежного покрова, см. При наведении курсора мыши на число - состояние снежного покрова и степень покрытия местности в баллах.